Flag Weather past 2 weeks in Bellingham, Washington, U.S.A.

Now
44 °F

Light rain. Fog.


Feels Like: 43 °F
Forecast: 34 / 54 °F
Wind: 3 mph from West

Location: Bellingham International Airport

Current Time: Nov 28, 2014 at 6:56:22 AM

Latest Report: Nov 28, 2014 at 5:53 AM


Visibility: 4 mi

Pressure: 29.55 "Hg

Humidity: 93%

Dew point: 42 °F

Location of BellinghamLocation

Historic Weather in Bellingham — Graph

°F

Bellingham temperature yesterday

Maximum temperature yesterday: 58 °F (at 12:53 AM)
Minimum temperature yesterday: 53 °F (at 2:53 AM)
Average temperature yesterday: 55 °F

Past Weeks' High & Low Weather Summary

 TemperatureHumidityPressure
High59 °F (Nov 26, 8:53 PM)96% (Nov 25, 3:53 AM)30.59 "Hg (Nov 25, 3:53 AM)
Low24 °F (Nov 17, 1:53 AM)22% (Nov 13, 11:53 AM)29.27 "Hg (Nov 21, 6:53 PM)
Average44 °F68%30.07 "Hg
* Reported Nov 13 5:53 AM — Nov 28 5:53 AM, Bellingham, Weather by CustomWeather, © 2014

Note: Actual official high and low records may vary slightly from our data, if they occured in-between our weather recording intervals... More about our weather records

Advertising

Bellingham weather history for previous 24 hours

 ConditionsComfort  
Time TempWeatherWind HumidityBarometerVisibility
5:53 AM
Nov 28
44 °FLight rain. Fog.3 mph93%29.55 "Hg4 mi
4:53 AM45 °FLight rain. Fog.8 mph90%29.55 "Hg3 mi
4:04 AM48 °FHeavy rain. Fog.9 mph94%29.53 "Hg2 mi
3:53 AM53 °FRain. Fog.14 mph89%29.52 "Hg5 mi
3:02 AM54 °FMostly cloudy.14 mph88%29.51 "Hg10 mi
2:53 AM53 °FMostly cloudy.17 mph89%29.54 "Hg10 mi
1:59 AM54 °FHeavy rain. Fog.17 mph88%29.53 "Hg2 mi
1:02 AM54 °FLight rain. Mostly cloudy.16 mph88%29.53 "Hg8 mi
12:53 AM54 °FLight rain. Overcast.18 mph86%29.56 "Hg9 mi
11:53 PM
Nov 27
54 °FLight rain. Overcast.18 mph86%29.58 "Hg8 mi
10:53 PM54 °FOvercast.13 mph83%29.60 "Hg10 mi
9:53 PM54 °FLight rain. Overcast.16 mph83%29.61 "Hg10 mi
8:53 PM54 °FMostly cloudy.14 mph86%29.63 "Hg10 mi
7:53 PM54 °FOvercast.16 mph86%29.64 "Hg10 mi
6:53 PM55 °FMostly cloudy.16 mph83%29.65 "Hg10 mi
5:53 PM56 °FLight rain. Mostly cloudy.16 mph81%29.67 "Hg10 mi
4:53 PM56 °FMostly cloudy.15 mph81%29.68 "Hg10 mi
3:53 PM56 °FMostly cloudy.15 mph81%29.70 "Hg10 mi
2:53 PM56 °FMostly cloudy.14 mph81%29.70 "Hg10 mi
1:53 PM57 °FOvercast.18 mph78%29.71 "Hg10 mi
12:53 PM56 °FCloudy.17 mph81%29.73 "Hg10 mi
11:53 AM57 °FOvercast.13 mph81%29.75 "Hg10 mi
10:53 AM55 °FCloudy.15 mph87%29.76 "Hg10 mi
9:53 AM54 °FCloudy.14 mph86%29.78 "Hg10 mi
9:00 AM54 °FCloudy.13 mph88%29.77 "Hg10 mi
7:53 AM53 °FLight rain. Fog.10 mph86%29.79 "Hg6 mi
6:53 AM55 °FOvercast.24 mph77%29.76 "Hg10 mi
Weather by CustomWeather, © 2014

See weather overviewHow to use our weather pages